Starlink 33673

operational
NORAD ID: 63284 Int'l Des: 2025-053 Owner: SPXS Country: US Constellation: starlink
LEOCIRCULAR

关于 Starlink 33673

正在加载描述...

实时位置

正在加载3D地球...

即将过境

高度历史

Altitude vs Time

uPlot chart will show altitude changes over time

两行轨道根数

1 63284U 25053V 25354.63965189 .00019349 00000-0 71072-3 0 9990
2 63284 43.0066 320.4178 0002817 261.9140 98.1392 15.27582703 44303
Epoch: Dec 20, 2025 • Age: 10 hours

当前状态

高度 484.4 km
速度 7.63 km/s
星下点 27.55°N, 6.11°W
发射日期 Mar 15, 2025
运行时间 0.7 years
类型 internet

技术详情

分类 Payload
质量 575.00 kg
干质量 530.00 kg
总质量 575.00 kg
长度 0.30 m
直径 4.10 m
跨度 29.00 m
形状 Box + pan
制造商 SPXS
平台类型 Starlink V2MO
阶段状态 In Orbit
所有者/国家 SPXS/US

大型星座

Loading constellations...